Location: Calvera
(42.3882°N, 0.6137°E)
Time: 19:29:16
(UTC+00:00)

CENTAUR R/B - Pass Details

Date: 28 October 2020
Orbit: 749 x 1439 km, 63.5° (Epoch: 22 November)

Event Time Altitude Azimuth Distance (km) Brightness Sun altitude
Exits shadow 03:50:11 54° 342° (NNW) 1,199 2.8 -29.3°
Drops below altitude 10° 03:56:15 10° 31° (NNE) 2,995 5.5 -28.2°
Sets 03:59:15 0° 35° (NE) 4,069 6.3 -27.7°
